紫金山彗星

C/2025 A3 ( Tsuchinshan )

English version
Home page
Updated on May 2, 2025

---------------------------------------------------------------------

・ プロフィール

発見日 2025年1月5日
発見光度 19.6等
発見者 China Near Earth Object Survey Telescope (CNEOST) search program, Xuyi Observatory of Purple Mountain Observatory (Tsuchinshan)

・ 写真集

・ 軌道要素

Epoch 2025 May 5.0 TT = JDT 2460800.5
T 2026 Mar. 15.00449 TT                                 Pike
q   5.7923743            (2000.0)            P               Q
n   0.03029156     Peri.  222.30270     -0.99037980     +0.08939060
a  10.1918957      Node   322.43370     -0.02197294     -0.85524551
e   0.4316686      Incl.    9.97689     -0.13662003     -0.51045512
P  32.5
From 87 observations 2024 Dec. 25-2025 Apr. 2, mean residual 0".4.

・ 光度変化

        m1 = 8.0 + 5 logΔ + 10.0 log r

---------------------------------------------------------------------

軌道要素はM.P.E.C. 2025-G119に掲載されたものです。
光度グラフはComet for Windowsで作成したものです。

---------------------------------------------------------------------

Copyright(C) Seiichi Yoshida (comet@aerith.net). All rights reserved.